CAPE
0 0 0 0 0 0 0 0 0 0 0 0 0 0 0 0 0 0 0 0 0 0
0 0 0 0 0 0 0 0 0 0 0 0 0 0 0 0 0 0 0 0 0 0
0 0 0 0 0 0 0 0 0 0 0 0 0 0 0 0 0 0 0 0 0 0
0 0 0 0 0 0 0 0 0 0 0 0 0 0 0 0 0 0 0 0 0 0
0 0 0 0 0 0 0 0 0 0 0 0 0 0 0 0 0 0 0 0 0 0
0 0 0 0 0 0 0 0 0 0 0 0 0 0 0 0 0 0 0 0 0 0
0 0 0 0 0 0 0 0 0 0 0 0 0 0 0 0 0 0 0 0 0 0
0 0 0 0 0 0 0 0 0 0 0 0 0 0 0 0 0 0 0 0 0 0
0 0 0 0 0 0 0 0 0 0 0 0 0 1 10 15 9 8 6 1 1 1
0 0 0 0 0 0 0 0 0 0 0 0 0 2 11 20 32 20 8 12 1 4
0 0 0 0 0 0 0 0 0 0 0 0 1 7 13 25 32 20 6 7 3 4
0 0 0 0 0 0 0 0 0 1 1 1 1 4 21 21 8 9 2 5 2 0
0 0 0 0 0 0 0 1 1 2 2 3 0 0 20 37 24 12 9 15 0 5
0 0 0 0 0 0 0 1 1 1 1 0 1 19 16 22 12 13 5 1 0 1
CIN
-0 -0 -0 -0 -0 -0 -0 -0 -0 -0 -0 -0 -0 -0 -0 -0 -0 -0 -0 -0 -0 -0
-0 -0 -0 -0 -0 -0 -0 -0 -0 -0 -0 -0 -0 -0 -0 -0 -0 -0 -0 -0 -0 -0
-0 -0 -0 -0 -0 -0 -0 -0 -0 -0 -0 -0 -0 -0 -0 -0 -0 -0 -0 -0 -0 -0
-0 -0 -0 -0 -0 -0 -0 -0 -0 -0 -0 -0 -0 -0 -0 -0 -0 -0 -0 -0 -0 -0
-0 -0 -0 -0 -0 -0 -0 -0 -0 -0 -0 -0 -0 -0 -0 -0 -0 -0 -0 -0 -0 -0
-0 -0 -0 -0 -0 -0 -0 -0 -0 -0 -0 -0 -0 -0 -0 -0 -0 -0 -0 -0 -0 -0
-0 -0 -0 -0 -0 -0 -0 -0 -0 -0 -0 -0 -0 -0 -0 -0 -0 -0 -0 -0 -0 -0
-0 -0 -0 -0 -0 -0 -0 -0 -0 -0 -0 -0 -0 -0 -0 -0 -0 -0 -0 -0 -0 -0
-0 -0 -0 -0 -0 -0 -0 -0 -0 -0 -0 -0 -0 -0 -0 -0 -4 -0 -1 -0 -0 -1
-0 -0 -0 -0 -0 -0 -0 -0 -0 -0 -0 -0 -0 -0 -0 -0 -0 -0 -2 -0 -0 -0
-0 -0 -0 -0 -0 -0 -0 -0 -0 -0 -0 -0 -0 -0 -0 -0 -0 -0 -0 -0 -1 -0
-0 -0 -0 -0 -0 -0 -0 -0 -0 -0 -0 -0 -0 -0 -0 -0 -0 -0 -0 -1 -2 -0
-0 -0 -0 -0 -0 -0 -0 -0 -0 -0 -0 -0 -0 -3 -0 -0 -0 -0 -0 -0 -0 -0
-0 -0 -0 -0 -0 -0 -0 -0 -0 -0 -0 -0 -0 -0 -0 -0 -0 -0 -0 -0 -0 -0
Wind_Speed
33 36 39 42 45 47 48 48 49 49 48 47 47 47 47 47 46 45 45 46 44 45
36 40 43 45 46 48 49 49 48 48 49 49 47 46 45 46 46 44 42 41 40 40
40 41 43 46 49 50 49 48 49 50 48 48 47 45 44 45 42 41 39 38 37 36
40 42 44 47 47 48 48 49 49 48 48 47 46 43 42 41 41 39 37 35 35 35
41 44 45 47 47 47 49 47 48 47 46 45 43 41 38 38 38 36 36 36 34 34
44 45 46 48 48 47 48 48 46 44 43 42 41 39 36 37 37 32 30 28 27 28
45 45 46 47 47 48 47 46 44 41 40 39 39 38 35 32 28 26 28 28 27 27
44 44 45 47 47 46 45 43 41 39 41 39 37 33 32 33 32 29 29 29 30 28
45 45 46 46 46 45 44 43 40 40 40 38 34 32 31 33 33 34 31 31 30 26
45 46 46 45 45 46 45 41 40 39 37 34 30 32 33 33 35 33 33 32 29 26
45 46 45 45 46 44 41 39 39 37 35 31 34 33 36 34 33 34 34 32 27 24
44 45 45 46 44 42 38 38 37 35 33 34 33 37 38 36 37 34 31 28 23 22
43 44 44 42 40 37 36 36 35 34 32 31 29 26 34 39 39 33 29 27 19 16
43 43 40 38 38 36 37 35 33 27 26 27 29 39 45 45 40 33 27 20 14 10
Wind_Direction
328 327 326 326 325 324 324 324 323 323 322 321 320 318 316 313 311 309 306 303 300 298
327 326 325 325 325 324 324 324 324 323 321 320 319 318 316 314 312 309 307 305 302 300
326 326 326 326 324 324 324 324 323 322 322 321 319 318 316 315 314 310 308 307 305 302
328 327 327 326 326 326 325 324 323 323 322 321 320 319 317 315 315 311 309 307 306 303
328 328 327 327 327 327 326 326 325 324 323 322 321 320 317 316 316 313 310 308 306 303
329 329 329 328 328 328 327 327 326 325 324 324 323 321 319 317 316 314 312 311 308 306
330 330 330 330 330 329 329 328 328 327 326 325 324 322 321 319 318 315 314 312 308 306
332 332 331 331 331 331 331 331 330 329 328 327 326 326 324 321 319 316 312 309 306 303
333 333 332 332 333 333 332 333 332 331 330 330 330 328 325 322 320 318 314 310 308 300
334 333 333 334 333 333 333 334 334 333 333 333 332 329 326 323 322 321 318 315 308 305
335 334 334 334 334 334 335 336 336 336 336 337 334 332 329 327 325 322 320 319 315 309
337 335 335 334 336 336 338 338 339 340 339 338 338 336 334 332 328 323 318 317 315 311
338 337 336 337 338 340 340 339 341 342 343 342 341 338 338 336 333 329 324 323 316 316
338 338 339 340 341 342 341 342 344 345 346 346 345 343 339 339 340 334 323 316 322 326